Regional Weather Roundup
Issued by NWS

Home | Current Version | Previous Version | Text Only | Print | Product List | Glossary On
Versions: 1 2 3 4 5 6 7 8 9 10 11 12 13 14 15 16 17 18 19 20 21 22 23 24 25 26 27 28 29 30 31 32 33 34 35 36 37 38 39 40 41 42 43 44 45 46 47 48 49 50
000
ASUS43 KIND 250709
RWRIN

WEATHER ROUNDUP FOR INDIANA
NATIONAL WEATHER SERVICE INDIANAPOLIS IN
300 AM EDT THU MAY 25 2017

NOTE: "FAIR" INDICATES FEW OR NO CLOUDS BELOW 12,000 FEET WITH NO
SIGNIFICANT WEATHER AND/OR OBSTRUCTIONS TO VISIBILITY.

* - STATION DOES NOT REPORT WEATHER SUCH AS PRECIPITATION OR FOG.

+ - STATION NOT QUALITY CONTROLLED BY THE NATIONAL WEATHER SERVICE.
    USE DATA WITH CAUTION...ESPECIALLY DEWPOINT AND RELATIVE
    HUMIDITY OBSERVATIONS.

INZ001>003-010>013-019-020-250800-
NORTHWEST INDIANA

CITY           SKY/WX    TMP DP  RH WIND       PRES   REMARKS
GARY /AIRPORT/ CLOUDY    52  50  92 NW16G22   29.53F
KNOX *+        CLOUDY    54  54 100 NW14      29.46F
LA PORTE +     CLOUDY    53  52  97 N12       29.48F FOG
MICHIGAN CITY+ CLOUDY    52  52 100 N7        29.50F
MONTICELLO +   CLOUDY    54  52  95 NW14G22   29.44F FOG
RENSSELAER +   CLOUDY    52  50  93 NW10      29.48F FOG
VALPARAISO     CLOUDY    51  50  96 N12       29.49F FOG

$$

LMZ046-743>745-250800-
SOUTHERN LAKE MICHIGAN

STATION/POSITION TIME  TEMP    WIND        PRES    WAVE
                       AIR SEA DIR/SP/G            HT
                 (UTC) (F)     (DEG/KT/KT) (MB)    (FT)
BURNS HARBOR     0640   49     340/ 18/ 20  999.7F
MICHIGAN CITY    0640   50     340/ 21/ 22   N/A
5NW MICH CITY    0700   50 52  350/ 16/ 19   N/A     5

$$

INZ004-005-014>016-021>024-250800-
NORTH CENTRAL INDIANA

CITY           SKY/WX    TMP DP  RH WIND       PRES   REMARKS
GOSHEN         CLOUDY    59  56  89 N12       29.42F
LOGANSPORT +   LGT RAIN  55  54  94 NW14G20   29.42F
PERU/GRISSOM   DRIZZLE   57  57 100 NW14      29.38S
ROCHESTER +    LGT RAIN N/A N/A N/A N10       29.42S
SOUTH BEND     LGT RAIN  57  57 100 N14       29.47S FOG
WARSAW +       LGT RAIN  57  57 100 N7        29.41S

$$

INZ006>009-017-018-025>027-250800-
NORTHEAST INDIANA

CITY           SKY/WX    TMP DP  RH WIND       PRES   REMARKS
ANGOLA *+      CLOUDY    57  46  67 NE9       29.41F
AUBURN +       DRIZZLE   59  55  88 NE14      29.40S
FORT WAYNE     CLOUDY    59  57  93 N12       29.37S
HUNTINGTON +   LGT RAIN N/A N/A N/A N6        29.37F

$$

INZ028-029-035-036-043>045-051>053-250800-
WEST CENTRAL INDIANA

CITY           SKY/WX    TMP DP  RH WIND       PRES   REMARKS
CRAWFORDSVL +  CLOUDY    53  53 100 NW14G22   29.46S FOG
GREENCASTLE +  CLOUDY    55  54  94 NW6       29.46S FOG
LAFAYETTE      CLOUDY    53  53 100 NW13      29.46F FOG
TERRE HAUTE    CLOUDY    57  54  89 NW9       29.48F

$$

INZ030>032-037>040-046>048-054>057-064-065-250800-
CENTRAL INDIANA

CITY           SKY/WX    TMP DP  RH WIND       PRES   REMARKS
CP ATTERBURY + CLOUDY    55  54  94 W7        29.42S
FISHERS *+     CLOUDY    54  54 100 NW14      29.39
FRANKFORT +    RAIN      57  55  94 NW17G24   29.44F
GREENWOOD *+   CLOUDY    57  56  94 W9G18     29.41F
INDIANAPOLIS   LGT RAIN  56  54  93 NW18      29.41F FOG
-EAGLE CREEK   LGT RAIN  56  54  93 NW15G25   29.40F FOG
KOKOMO +       LGT RAIN  57  56  96 NW14      29.39S
MARION +       LGT RAIN  57  55  94 N13       29.37S
SHELBYVILLE    RAIN      59  56  89 W13       29.38F FOG
ZIONSVILLE +   RAIN      54  54  97 NW14      29.41F

$$

INZ033-034-041-042-049-050-058-059-250800-
EAST CENTRAL INDIANA

CITY           SKY/WX    TMP DP  RH WIND       PRES   REMARKS
MUNCIE         LGT RAIN  60  57  89 W5        29.35F FOG
RICHMOND +     DRIZZLE   55  55 100 SW7       29.37F

$$

INZ060-061-067>069-081>083-085>088-250800-
SOUTHWEST INDIANA

CITY           SKY/WX    TMP DP  RH WIND       PRES   REMARKS
EVANSVILLE     CLOUDY    59  55  87 W7        29.53S
HUNTINGBURG *+ CLOUDY    58  56  93 W8        29.51S
WASHINGTON +   CLOUDY    57  55  92 W8        29.49S

$$

INZ062-063-066-070>080-084-089>092-250800-
SOUTH CENTRAL AND SOUTHEAST INDIANA

CITY           SKY/WX    TMP DP  RH WIND       PRES   REMARKS
BLOOMINGTON    CLOUDY    57  54  89 W8        29.46S
NORTH VERNON + DRIZZLE   57  55  94 W10       29.42F
SEYMOUR +      CLOUDY    59  57  94 W13       29.43S FOG

$$





USA.gov is the U.S. government's official web portal to all federal, state and local government web resources and services.